GW1907 Weather Reports


time (UTC)temp
F
wind
direction
speed
knots
gust
knots
rain 1hr
in
rain 24hr
in
rain mn
in
humidity
%
barometer
mb
20260506191833 85 132 1.7 1.7 0.00 0.00 0.00 75 1011.5
20260506191329 85 135 0.9 1.7 0.00 0.00 0.00 76 1011.5
20260506190826 84 63 0.0 0.9 0.00 0.00 0.00 74 1011.2
20260506190322 84 82 0.9 0.9 0.00 0.00 0.00 76 1011.5
20260506185819 84 126 1.7 4.3 0.00 0.00 0.00 75 1011.5
20260506185316 84 161 2.6 2.6 0.00 0.00 0.00 77 1011.9
20260506184814 84 155 2.6 4.3 0.00 0.00 0.00 76 1011.9
20260506184311 84 159 2.6 2.6 0.00 0.00 0.00 77 1011.9
20260506183808 83 107 3.5 4.3 0.00 0.00 0.00 79 1011.9
20260506183303 83 43 0.9 1.7 0.00 0.00 0.00 80 1012.2
20260506182800 82 98 0.9 0.9 0.00 0.00 0.00 81 1011.9
20260506182257 82 68 0.0 0.0 0.00 0.00 0.00 81 1012.2
20260506181755 82 64 0.0 0.9 0.00 0.00 0.00 82 1012.2
20260506181253 82 62 0.9 1.7 0.00 0.00 0.00 82 1012.2
20260506180749 82 88 0.9 0.9 0.00 0.00 0.00 81 1012.2
20260506180245 81 88 1.7 1.7 0.00 0.00 0.00 81 1012.2
20260506175742 81 53 0.0 0.9 0.00 0.00 0.00 82 1012.5
20260506175239 81 49 2.6 2.6 0.00 0.00 0.00 82 1012.5
20260506174737 81 83 1.7 2.6 0.00 0.00 0.00 83 1012.2
20260506174233 81 68 4.3 6.1 0.00 0.00 0.00 83 1012.5
20260506173732 81 108 2.6 4.3 0.00 0.00 0.00 82 1012.5
20260506173228 81 45 2.6 4.3 0.00 0.00 0.00 82 1012.5
20260506172725 81 142 2.6 4.3 0.00 0.00 0.00 82 1012.5
20260506172221 81 88 1.7 1.7 0.00 0.00 0.00 82 1012.5
20260506171719 81 90 0.9 0.9 0.00 0.00 0.00 83 1012.9
20260506171216 81 45 2.6 2.6 0.00 0.00 0.00 83 1012.9
20260506170713 82 61 4.3 6.1 0.00 0.00 0.00 81 1012.9
20260506170210 81 96 1.7 1.7 0.00 0.00 0.00 82 1012.9
20260506165709 81 80 0.9 0.9 0.00 0.00 0.00 83 1012.5
20260506165205 81 82 2.6 4.3 0.00 0.00 0.00 84 1012.9
20260506164702 81 81 3.5 4.3 0.00 0.00 0.00 83 1012.5
20260506164159 80 85 2.6 4.3 0.00 0.00 0.00 83 1012.5
20260506163655 80 46 1.7 2.6 0.00 0.00 0.00 86 1012.5
20260506163151 80 38 2.6 4.3 0.00 0.00 0.00 86 1012.5
20260506162647 79 48 2.6 4.3 0.00 0.00 0.00 87 1012.5
20260506162145 80 66 2.6 4.3 0.00 0.00 0.00 87 1012.5
20260506161642 79 93 0.9 0.9 0.00 0.00 0.00 87 1012.5
20260506161138 79 81 1.7 1.7 0.00 0.00 0.00 87 1012.5
20260506160636 79 122 0.9 0.9 0.00 0.00 0.00 87 1012.9
20260506160133 79 113 0.0 0.0 0.00 0.00 0.00 88 1012.5
20260506155631 78 84 0.9 0.9 0.00 0.00 0.00 89 1012.5
20260506155128 77 60 2.6 2.6 0.00 0.00 0.00 92 1012.2
20260506153230 77 85 0.9 0.9 0.00 0.00 0.00 92 1011.9
20260506152727 77 96 0.9 0.9 0.00 0.00 0.00 93 1011.9
20260506152225 77 109 1.7 1.7 0.00 0.00 0.00 92 1012.2
20260506151724 77 113 0.0 0.0 0.00 0.00 0.00 93 1011.9
20260506151220 77 124 1.7 1.7 0.00 0.00 0.00 92 1011.9
20260506150716 77 114 0.0 0.0 0.00 0.00 0.00 92 1012.2
20260506150213 77 107 1.7 1.7 0.00 0.00 0.00 92 1011.9
20260506145710 77 106 0.9 0.9 0.00 0.00 0.00 92 1011.9
20260506145207 77 111 0.9 0.9 0.00 0.00 0.00 92 1011.9
20260506144704 77 105 0.0 0.0 0.00 0.00 0.00 93 1011.9
20260506144201 77 123 0.9 0.9 0.00 0.00 0.00 93 1011.9
20260506143659 76 118 0.9 0.9 0.00 0.00 0.00 93 1011.5
20260506143156 76 128 0.9 0.9 0.00 0.00 0.00 93 1011.5
20260506142655 76 130 0.0 0.9 0.00 0.00 0.00 94 1011.2
20260506142152 76 116 1.7 1.7 0.00 0.00 0.00 94 1011.5
20260506141650 76 106 1.7 1.7 0.00 0.00 0.00 93 1011.2
20260506141148 76 104 1.7 1.7 0.00 0.00 0.00 93 1011.2
20260506140645 76 157 1.7 1.7 0.00 0.00 0.00 93 1011.5
20260506140142 76 118 0.9 0.9 0.00 0.00 0.00 94 1011.2
20260506135639 76 117 0.9 1.7 0.00 0.00 0.00 93 1010.9
20260506135135 76 145 0.9 0.9 0.00 0.00 0.00 94 1010.9
20260506134632 76 142 0.9 1.7 0.00 0.00 0.00 94 1010.5
20260506134128 75 126 0.0 0.9 0.00 0.00 0.00 95 1010.5
20260506133625 75 119 1.7 2.6 0.00 0.00 0.00 95 1010.9
20260506133122 75 132 0.9 0.9 0.00 0.00 0.00 95 1010.5
20260506132620 75 131 2.6 4.3 0.00 0.00 0.00 95 1010.5
20260506132116 75 122 0.9 0.9 0.00 0.00 0.00 95 1010.5
20260506131614 75 143 1.7 1.7 0.00 0.00 0.00 94 1010.5
20260506131110 75 145 0.9 1.7 0.00 0.00 0.00 95 1010.5
20260506130607 75 122 0.9 0.9 0.00 0.00 0.00 95 1010.5
20260506130104 75 123 0.9 1.7 0.00 0.00 0.00 95 1010.5
20260506125603 75 124 0.9 1.7 0.00 0.00 0.00 95 1010.5
20260506125100 75 115 0.9 0.9 0.00 0.00 0.00 95 1010.5
20260506124557 75 121 0.9 0.9 0.00 0.00 0.00 95 1010.5
20260506124055 75 118 0.0 0.9 0.00 0.00 0.00 95 1010.5
20260506123553 75 130 1.7 1.7 0.00 0.00 0.00 95 1010.5
20260506123051 75 101 1.7 1.7 0.00 0.00 0.00 95 1010.2
20260506122547 75 123 0.0 0.0 0.00 0.00 0.00 95 1010.5
20260506122046 75 130 0.0 0.0 0.00 0.00 0.00 95 1010.5
20260506121543 75 122 0.0 0.0 0.00 0.00 0.00 95 1010.2
20260506121039 75 122 1.7 1.7 0.00 0.00 0.00 95 1010.2
20260506120537 75 118 2.6 4.3 0.00 0.00 0.00 95 1010.2
20260506120034 75 130 0.9 0.9 0.00 0.00 0.00 94 1010.2
20260506115532 75 130 0.0 0.9 0.00 0.00 0.00 94 1010.2
20260506115030 75 142 0.9 0.9 0.00 0.00 0.00 94 1010.2
20260506114527 75 124 0.9 0.9 0.00 0.00 0.00 94 1010.2
20260506114026 75 157 2.6 4.3 0.00 0.00 0.00 95 1010.2
20260506113523 75 128 0.9 1.7 0.00 0.00 0.00 94 1010.2
20260506113020 75 110 0.9 0.9 0.00 0.00 0.00 94 1010.2
20260506112517 75 94 0.9 0.9 0.00 0.00 0.00 94 1010.2
20260506112014 75 114 0.9 0.9 0.00 0.00 0.00 94 1010.2
20260506111512 75 120 0.0 0.0 0.00 0.00 0.00 94 1010.2
20260506111009 75 115 0.0 0.0 0.00 0.00 0.00 94 1010.2
20260506110507 75 105 0.0 0.0 0.00 0.00 0.00 94 1010.2
20260506110004 75 109 0.0 0.0 0.00 0.00 0.00 94 1010.2
20260506105459 75 104 0.0 0.0 0.00 0.00 0.00 94 1010.2
20260506104957 75 124 0.0 0.0 0.00 0.00 0.00 94 1009.8
20260506104455 75 132 0.0 0.0 0.00 0.00 0.00 94 1010.2
20260506103953 75 130 0.0 0.0 0.00 0.00 0.00 94 1009.8
20260506103449 75 138 0.0 0.0 0.00 0.00 0.00 94 1010.2
20260506102946 75 131 0.0 0.0 0.00 0.00 0.00 94 1010.2
20260506102444 75 130 0.0 0.0 0.00 0.00 0.00 94 1010.2
20260506101942 75 132 0.9 1.7 0.00 0.00 0.00 94 1009.8
20260506101438 75 135 0.0 0.0 0.00 0.00 0.00 94 1009.8
20260506100935 75 183 0.9 1.7 0.00 0.00 0.00 94 1009.8
20260506100433 75 146 0.0 0.9 0.00 0.00 0.00 93 1009.8
20260506095931 75 145 0.0 0.9 0.00 0.00 0.00 93 1009.8
20260506095430 76 151 1.7 1.7 0.00 0.00 0.00 92 1009.8
20260506094925 76 166 0.9 0.9 0.00 0.00 0.00 92 1009.8
20260506094424 76 151 0.9 0.9 0.00 0.00 0.00 92 1009.8
20260506093921 76 146 0.9 0.9 0.00 0.00 0.00 92 1009.8
20260506093419 76 163 0.9 1.7 0.00 0.00 0.00 92 1009.8
20260506092917 76 150 0.0 0.9 0.00 0.00 0.00 92 1009.8
20260506092415 76 146 1.7 1.7 0.00 0.00 0.00 92 1009.8
20260506091911 76 152 1.7 1.7 0.00 0.00 0.00 92 1009.5
20260506091409 76 138 1.7 1.7 0.00 0.00 0.00 92 1010.2
20260506090906 76 148 0.9 0.9 0.00 0.00 0.00 92 1009.8
20260506090403 76 151 0.0 0.9 0.00 0.00 0.00 91 1009.8
20260506085900 76 172 1.7 1.7 0.00 0.00 0.00 91 1009.8
20260506085356 76 172 0.9 0.9 0.00 0.00 0.00 91 1009.8
20260506084853 76 156 0.9 0.9 0.00 0.00 0.00 91 1009.8
20260506084350 76 145 0.9 1.7 0.00 0.00 0.00 91 1009.8
20260506083846 76 173 2.6 4.3 0.00 0.00 0.00 91 1010.2
20260506083344 76 165 2.6 4.3 0.00 0.00 0.00 91 1010.2
20260506082841 76 154 1.7 2.6 0.00 0.00 0.00 91 1009.8
20260506082337 77 161 1.7 1.7 0.00 0.00 0.00 91 1010.2
20260506081833 77 162 1.7 1.7 0.00 0.00 0.00 91 1010.2
20260506081332 77 154 1.7 1.7 0.00 0.00 0.00 91 1009.8
20260506080829 77 181 3.5 4.3 0.00 0.00 0.00 90 1010.2
20260506080325 77 184 2.6 4.3 0.00 0.00 0.00 90 1010.2
20260506073310 77 164 1.7 2.6 0.00 0.00 0.00 90 1010.2
20260506072806 77 150 1.7 1.7 0.00 0.00 0.00 90 1010.2
20260506072305 77 108 1.7 2.6 0.00 0.00 0.00 90 1010.2
20260506071801 77 157 2.6 2.6 0.00 0.00 0.00 90 1010.2
20260506071259 77 112 0.9 1.7 0.00 0.00 0.00 90 1010.2
20260506070756 77 137 0.9 0.9 0.00 0.00 0.00 90 1010.2
20260506070253 77 169 1.7 1.7 0.00 0.00 0.00 91 1010.5
20260506062230 77 114 2.6 2.6 0.00 0.00 0.00 91 1010.5
20260506061726 77 157 2.6 4.3 0.00 0.00 0.00 91 1010.5
20260506061224 77 147 3.5 5.2 0.00 0.00 0.00 91 1010.5
20260506060722 77 180 4.3 6.1 0.00 0.00 0.00 91 1010.5
20260506060219 77 114 2.6 4.3 0.00 0.00 0.00 91 1010.5
20260506051151 77 138 5.2 7.0 0.00 0.00 0.00 90 1010.2
20260506050649 77 136 1.7 1.7 0.00 0.00 0.00 90 1010.2
20260506050146 77 149 1.7 2.6 0.00 0.00 0.00 90 1010.5
20260506044637 77 195 1.7 4.3 0.00 0.00 0.00 90 1010.5
20260506044134 77 148 2.6 4.3 0.00 0.00 0.00 90 1010.5
20260506043631 77 142 0.0 0.9 0.00 0.00 0.00 90 1010.5
20260506043129 77 128 2.6 2.6 0.00 0.00 0.00 90 1010.5
20260506042628 77 187 6.1 7.0 0.00 0.00 0.00 90 1010.5
20260506042125 77 162 2.6 4.3 0.00 0.00 0.00 90 1010.2
20260506041624 77 124 1.7 1.7 0.00 0.00 0.00 90 1010.2
20260506041120 77 120 2.6 2.6 0.00 0.00 0.00 90 1010.2
20260506040618 77 182 2.6 5.2 0.00 0.00 0.00 90 1010.2
20260506040114 77 166 0.9 0.9 0.00 0.00 0.00 90 1010.2
20260506035611 78 150 0.9 1.7 0.00 0.00 0.00 90 1009.8
20260506035108 78 117 1.7 4.3 0.00 0.00 0.00 90 1009.8
20260506034605 78 157 0.9 1.7 0.00 0.00 0.00 90 1009.8
20260506034102 78 170 0.9 1.7 0.00 0.00 0.00 89 1009.8
20260506033559 78 162 1.7 1.7 0.00 0.00 0.00 89 1009.5
20260506033056 78 150 0.9 1.7 0.00 0.00 0.00 89 1009.8
20260506032554 78 130 1.7 2.6 0.00 0.00 0.00 88 1009.5
20260506032050 78 156 1.7 1.7 0.00 0.00 0.00 88 1009.5
20260506031548 79 137 1.7 1.7 0.00 0.00 0.00 88 1009.5
20260506031044 79 115 2.6 4.3 0.00 0.00 0.00 87 1009.5
20260506030543 79 162 2.6 4.3 0.00 0.00 0.00 87 1009.5
20260506030040 79 133 5.2 6.1 0.00 0.00 0.00 87 1009.5
20260506025537 79 150 2.6 4.3 0.00 0.00 0.00 87 1009.5
20260506025032 80 108 3.5 4.3 0.00 0.00 0.00 86 1009.2
20260506024530 80 168 4.3 6.1 0.00 0.00 0.00 86 1009.2
20260506024026 80 148 1.7 1.7 0.00 0.00 0.00 85 1009.2
20260506023522 80 144 2.6 2.6 0.00 0.00 0.00 85 1009.2
20260506023020 80 138 1.7 2.6 0.00 0.00 0.00 84 1009.2
20260506022517 80 114 2.6 2.6 0.00 0.00 0.00 85 1008.7
20260506022015 81 103 5.2 6.1 0.00 0.00 0.00 84 1009.2
20260506021512 81 151 3.5 5.2 0.00 0.00 0.00 84 1008.7
20260506021009 81 135 2.6 2.6 0.00 0.00 0.00 84 1008.4
20260506020507 82 155 4.3 8.7 0.00 0.00 0.00 83 1008.4
20260506020004 82 108 1.7 2.6 0.00 0.00 0.00 83 1008.4
20260506015501 82 126 2.6 2.6 0.00 0.00 0.00 82 1008.4
20260506014958 82 179 4.3 7.0 0.00 0.00 0.00 82 1008.4
20260506014455 83 111 2.6 4.3 0.00 0.00 0.00 81 1008.4
20260506013951 83 122 1.7 1.7 0.00 0.00 0.00 81 1008.4
20260506013449 83 136 0.0 0.9 0.00 0.00 0.00 80 1008.0
20260506012945 83 102 2.6 6.1 0.00 0.00 0.00 79 1008.0
20260506012442 83 145 4.3 6.1 0.00 0.00 0.00 79 1008.0
20260506011939 84 118 3.5 6.1 0.00 0.00 0.00 78 1008.0
20260506011436 84 120 4.3 6.1 0.00 0.00 0.00 78 1008.0
20260506010933 84 109 5.2 7.8 0.00 0.00 0.00 77 1007.7
20260506010432 85 169 0.9 1.7 0.00 0.00 0.00 75 1007.7
20260506005927 85 120 0.0 0.9 0.00 0.00 0.00 74 1007.4
20260506005426 85 121 1.7 1.7 0.00 0.00 0.00 74 1007.4
20260506004920 85 130 0.9 0.9 0.00 0.00 0.00 74 1007.4
20260506004419 85 143 2.6 2.6 0.00 0.00 0.00 74 1007.4
20260506003914 85 129 1.7 2.6 0.00 0.00 0.00 74 1007.7
20260506003411 85 145 2.6 4.3 0.00 0.00 0.00 74 1007.4
20260506002908 86 132 2.6 2.6 0.00 0.00 0.00 73 1007.4
20260506002404 86 130 3.5 5.2 0.00 0.00 0.00 73 1007.4
20260506001859 86 111 3.5 5.2 0.00 0.00 0.00 72 1007.4
20260506001356 87 132 0.9 0.9 0.00 0.00 0.00 72 1007.4
20260506000854 87 150 2.6 2.6 0.00 0.00 0.00 72 1007.4
20260506000354 87 136 0.9 0.9 0.00 0.00 0.00 72 1007.4
20260505235848 87 158 0.9 1.7 0.00 0.00 0.00 72 1007.0
20260505235346 87 138 0.9 0.9 0.00 0.00 0.00 72 1007.0
20260505234842 87 132 2.6 2.6 0.00 0.00 0.00 71 1007.4
20260505234340 86 135 4.3 5.2 0.00 0.00 0.00 72 1007.0
20260505233837 86 156 3.5 5.2 0.00 0.00 0.00 72 1007.0
20260505233335 87 145 2.6 2.6 0.00 0.00 0.00 71 1007.0
20260505232832 87 139 2.6 2.6 0.00 0.00 0.00 71 1007.0
20260505232330 87 99 2.6 4.3 0.00 0.00 0.00 70 1007.0
20260505231826 87 140 2.6 2.6 0.00 0.00 0.00 70 1007.0
20260505231324 88 122 4.3 7.0 0.00 0.00 0.00 69 1007.0
20260505230822 88 128 2.6 4.3 0.00 0.00 0.00 69 1007.0
20260505230319 88 155 5.2 7.8 0.00 0.00 0.00 69 1007.0
20260505225815 88 149 1.7 2.6 0.00 0.00 0.00 70 1007.0
20260505225313 88 132 4.3 6.1 0.00 0.00 0.00 70 1006.7
20260505224807 88 155 1.7 2.6 0.00 0.00 0.00 69 1006.7
20260505224305 88 152 1.7 1.7 0.00 0.00 0.00 69 1006.7
20260505223803 89 153 4.3 7.0 0.00 0.00 0.00 67 1007.0
20260505223300 89 130 2.6 4.3 0.00 0.00 0.00 66 1007.0
20260505222755 89 151 1.7 1.7 0.00 0.00 0.00 66 1007.0
20260505222252 90 168 1.7 1.7 0.00 0.00 0.00 67 1007.4
20260505221749 90 162 1.7 1.7 0.00 0.00 0.00 65 1007.4
20260505221245 90 176 1.7 1.7 0.00 0.00 0.00 65 1007.4
20260505220742 88 151 0.0 0.9 0.00 0.00 0.00 67 1007.4
20260505220239 87 192 1.7 1.7 0.00 0.00 0.00 69 1007.4
20260505215737 87 186 1.7 1.7 0.00 0.00 0.00 68 1007.4
20260505215235 87 207 4.3 5.2 0.00 0.00 0.00 69 1007.4
20260505214733 87 186 5.2 6.1 0.00 0.00 0.00 69 1007.7
20260505214230 87 179 2.6 2.6 0.00 0.00 0.00 69 1007.7
20260505213727 88 169 3.5 5.2 0.00 0.00 0.00 68 1007.7
20260505213224 88 158 3.5 4.3 0.00 0.00 0.00 68 1007.4
20260505212720 88 141 1.7 1.7 0.00 0.00 0.00 67 1008.0
20260505212218 88 178 2.6 2.6 0.00 0.00 0.00 68 1008.0
20260505211714 87 166 1.7 1.7 0.00 0.00 0.00 68 1007.7
20260505211212 87 246 1.7 2.6 0.00 0.00 0.00 69 1008.0
20260505210708 87 185 0.9 1.7 0.00 0.00 0.00 69 1008.0
20260505210205 87 182 2.6 2.6 0.00 0.00 0.00 70 1008.4
20260505205703 87 136 1.7 1.7 0.00 0.00 0.00 69 1008.0
20260505205201 87 124 2.6 4.3 0.00 0.00 0.00 68 1008.4
20260505204657 86 209 2.6 2.6 0.00 0.00 0.00 70 1008.4
20260505204155 87 186 2.6 2.6 0.00 0.00 0.00 69 1008.4
20260505203652 87 179 2.6 4.3 0.00 0.00 0.00 69 1008.7
20260505203148 87 162 1.7 2.6 0.00 0.00 0.00 68 1008.7
20260505202644 87 178 4.3 6.1 0.00 0.00 0.00 69 1009.2
20260505202140 86 152 2.6 2.6 0.00 0.00 0.00 71 1009.2
20260505201637 87 196 1.7 1.7 0.00 0.00 0.00 69 1009.2
20260505201135 87 204 3.5 4.3 0.00 0.00 0.00 71 1009.2
20260505200633 86 193 1.7 1.7 0.00 0.00 0.00 70 1009.2
20260505200129 86 136 2.6 4.3 0.00 0.00 0.00 71 1009.5
20260505195626 86 184 4.3 7.0 0.00 0.00 0.00 71 1009.2
20260505195123 86 135 4.3 6.1 0.00 0.00 0.00 71 1009.2
20260505194620 86 184 3.5 5.2 0.00 0.00 0.00 73 1009.2
20260505194116 86 120 2.6 2.6 0.00 0.00 0.00 72 1009.5
20260505193613 86 158 2.6 4.3 0.00 0.00 0.00 71 1009.5
20260505193110 85 178 2.6 4.3 0.00 0.00 0.00 72 1009.5
20260505192609 84 179 3.5 6.1 0.00 0.00 0.00 74 1009.5
20260505192106 84 145 1.7 1.7 0.00 0.00 0.00 75 1009.8